| time (UTC) | temp F | wind direction | speed MPH | gust MPH | rain 1hr in | rain 24hr in | rain mn in | humidity % | barometer mb |
| 20260503211516 | 60 | 239 | 20.0 | 27.0 | 0.00 | 0.00 | 0.00 | 41 | 1012.0 |
| 20260503210028 | 60 | 238 | 19.0 | 30.0 | 0.00 | 0.00 | 0.00 | 40 | 1012.1 |
| 20260503204510 | 60 | 223 | 19.0 | 27.0 | 0.00 | 0.00 | 0.00 | 38 | 1012.2 |
| 20260503203004 | 61 | 238 | 19.0 | 29.0 | 0.00 | 0.00 | 0.00 | 39 | 1012.3 |
| 20260503201523 | 61 | 243 | 19.0 | 26.0 | 0.00 | 0.00 | 0.00 | 39 | 1012.5 |
| 20260503200020 | 61 | 222 | 23.0 | 30.0 | 0.00 | 0.00 | 0.00 | 36 | 1012.9 |
| 20260503194516 | 61 | 235 | 21.0 | 29.0 | 0.00 | 0.00 | 0.00 | 36 | 1012.9 |
| 20260503193013 | 60 | 238 | 19.0 | 24.0 | 0.00 | 0.00 | 0.00 | 37 | 1013.2 |
| 20260503191510 | 61 | 234 | 20.0 | 27.0 | 0.00 | 0.00 | 0.00 | 36 | 1013.3 |
| 20260503190009 | 60 | 230 | 22.0 | 29.0 | 0.00 | 0.00 | 0.00 | 36 | 1013.6 |
| 20260503184535 | 61 | 229 | 20.0 | 28.0 | 0.00 | 0.00 | 0.00 | 37 | 1013.7 |
| 20260503183024 | 61 | 243 | 22.0 | 26.0 | 0.00 | 0.00 | 0.00 | 39 | 1013.9 |
| 20260503181522 | 60 | 238 | 20.0 | 29.0 | 0.00 | 0.00 | 0.00 | 37 | 1014.0 |
| 20260503180024 | 60 | 225 | 21.0 | 32.0 | 0.00 | 0.00 | 0.00 | 36 | 1014.4 |
| 20260503174515 | 60 | 246 | 22.0 | 29.0 | 0.00 | 0.00 | 0.00 | 39 | 1014.4 |
| 20260503173015 | 60 | 249 | 19.0 | 28.0 | 0.00 | 0.00 | 0.00 | 42 | 1014.7 |
| 20260503171524 | 60 | 217 | 23.0 | 30.0 | 0.00 | 0.00 | 0.00 | 38 | 1014.9 |
| 20260503081527 | 33 | 240 | 1.0 | 2.0 | 0.00 | 0.00 | 0.00 | 82 | 1016.6 |
| 20260503071519 | 33 | 240 | 2.0 | 2.0 | 0.00 | 0.00 | 0.00 | 81 | 1016.8 |
| 20260503054526 | 35 | 240 | 2.0 | 3.0 | 0.00 | 0.00 | 0.00 | 79 | 1017.2 |
| 20260503053036 | 35 | 240 | 2.0 | 3.0 | 0.00 | 0.00 | 0.00 | 79 | 1017.2 |
| 20260503051525 | 36 | 240 | 3.0 | 3.0 | 0.00 | 0.00 | 0.00 | 78 | 1017.3 |
| 20260503050021 | 36 | 240 | 2.0 | 2.0 | 0.00 | 0.00 | 0.00 | 78 | 1017.3 |
| 20260503044529 | 36 | 240 | 2.0 | 2.0 | 0.00 | 0.00 | 0.00 | 77 | 1017.4 |
| 20260503043028 | 36 | 240 | 2.0 | 2.0 | 0.00 | 0.00 | 0.00 | 78 | 1017.3 |
| 20260503041528 | 36 | 240 | 1.0 | 1.0 | 0.00 | 0.00 | 0.00 | 78 | 1017.3 |
| 20260503040030 | 36 | 240 | 1.0 | 2.0 | 0.00 | 0.00 | 0.00 | 76 | 1017.3 |
| 20260503034538 | 37 | 240 | 2.0 | 2.0 | 0.00 | 0.00 | 0.00 | 77 | 1017.4 |
| 20260503033007 | 38 | 240 | 1.0 | 2.0 | 0.00 | 0.00 | 0.00 | 76 | 1017.4 |
| 20260503031503 | 38 | 235 | 3.0 | 3.0 | 0.00 | 0.00 | 0.00 | 77 | 1017.4 |
| 20260503030022 | 38 | 209 | 2.0 | 3.0 | 0.00 | 0.00 | 0.00 | 80 | 1017.4 |
| 20260503024520 | 38 | 209 | 2.0 | 3.0 | 0.00 | 0.00 | 0.00 | 81 | 1017.5 |
| 20260503023014 | 39 | 209 | 3.0 | 3.0 | 0.00 | 0.00 | 0.00 | 79 | 1017.5 |
| 20260503021513 | 41 | 209 | 3.0 | 4.0 | 0.00 | 0.00 | 0.00 | 76 | 1017.5 |
| 20260503020009 | 41 | 209 | 3.0 | 4.0 | 0.00 | 0.00 | 0.00 | 76 | 1017.4 |
| 20260503014531 | 42 | 263 | 2.0 | 3.0 | 0.00 | 0.00 | 0.00 | 76 | 1017.3 |
| 20260503013018 | 42 | 263 | 2.0 | 3.0 | 0.00 | 0.00 | 0.00 | 76 | 1017.2 |
| 20260503011511 | 42 | 263 | 2.0 | 3.0 | 0.00 | 0.00 | 0.00 | 76 | 1017.3 |
| 20260503010010 | 42 | 263 | 1.0 | 2.0 | 0.00 | 0.00 | 0.00 | 76 | 1017.2 |
| 20260503004510 | 44 | 263 | 2.0 | 3.0 | 0.00 | 0.00 | 0.00 | 72 | 1017.1 |
| 20260503003024 | 45 | 263 | 2.0 | 3.0 | 0.00 | 0.00 | 0.00 | 68 | 1017.1 |
| 20260503001524 | 45 | 263 | 2.0 | 2.0 | 0.00 | 0.00 | 0.00 | 59 | 1017.1 |
| 20260503000018 | 46 | 263 | 1.0 | 2.0 | 0.00 | 0.02 | 0.00 | 50 | 1017.1 |
| 20260502234515 | 46 | 267 | 2.0 | 5.0 | 0.00 | 0.02 | 0.00 | 49 | 1017.0 |
| 20260502233015 | 47 | 284 | 3.0 | 7.0 | 0.00 | 0.02 | 0.00 | 47 | 1017.0 |
| 20260502231519 | 47 | 275 | 6.0 | 10.0 | 0.00 | 0.02 | 0.00 | 44 | 1017.1 |
| 20260502230011 | 47 | 282 | 5.0 | 9.0 | 0.00 | 0.02 | 0.00 | 42 | 1017.2 |
| 20260502224524 | 48 | 284 | 7.0 | 11.0 | 0.00 | 0.02 | 0.00 | 45 | 1017.2 |
| 20260502223024 | 48 | 298 | 6.0 | 12.0 | 0.00 | 0.02 | 0.00 | 44 | 1017.2 |
| 20260502221521 | 48 | 285 | 10.0 | 12.0 | 0.00 | 0.02 | 0.00 | 42 | 1017.3 |
| 20260502220023 | 48 | 276 | 8.0 | 12.0 | 0.00 | 0.02 | 0.00 | 43 | 1017.3 |
| 20260502214527 | 47 | 268 | 7.0 | 9.0 | 0.00 | 0.02 | 0.00 | 49 | 1017.2 |
| 20260502213014 | 47 | 281 | 6.0 | 11.0 | 0.00 | 0.02 | 0.00 | 44 | 1017.3 |